SHT14M EGLL-EGJJ

Flight info

Callsign SHT14M
Flight time 0h 32m
Altitude 24000
Route GASGU N866 SAM N63 LELNA
Aircraft A320/M-SDE3FGHIRWY/LB1

Departure

Time 2026-05-07 21:25
Airport London Heathrow Airport (EGLL)

Arrival

Time 2026-05-07 21:57
Airport Jersey Airport (EGJJ)
Time Latitude Longitude Altitude Speed Heading
2026-05-07 21:01 51.46925 -0.48650 90 ft 0 kts 360°
2026-05-07 21:18 51.46924 -0.48650 90 ft 1 kts 360°
2026-05-07 21:18 51.46901 -0.48651 91 ft 2 kts 360°
2026-05-07 21:18 51.46883 -0.48654 91 ft 4 kts 53°
2026-05-07 21:19 51.46877 -0.48688 90 ft 4 kts 90°
2026-05-07 21:19 51.46877 -0.48717 89 ft 4 kts 90°
2026-05-07 21:19 51.46877 -0.48725 89 ft 0 kts 90°
2026-05-07 21:21 51.46877 -0.48712 89 ft 4 kts 90°
2026-05-07 21:22 51.46877 -0.48633 90 ft 10 kts 90°
2026-05-07 21:22 51.46876 -0.48502 91 ft 13 kts 90°
2026-05-07 21:22 51.46841 -0.48450 92 ft 9 kts 191°
2026-05-07 21:22 51.46766 -0.48467 92 ft 13 kts 176°
2026-05-07 21:23 51.46669 -0.48468 94 ft 13 kts 180°
2026-05-07 21:23 51.46608 -0.48468 96 ft 0 kts 180°
2026-05-07 21:23 51.46598 -0.48468 96 ft 4 kts 180°
2026-05-07 21:23 51.46540 -0.48468 95 ft 13 kts 180°
2026-05-07 21:24 51.46478 -0.48396 94 ft 13 kts 89°
2026-05-07 21:24 51.46478 -0.48084 91 ft 59 kts 90°
2026-05-07 21:24 51.46482 -0.47080 91 ft 117 kts 90°
2026-05-07 21:24 51.46491 -0.45524 110 ft 158 kts 90°
2026-05-07 21:25 51.46508 -0.43788 725 ft 156 kts 91°
2026-05-07 21:25 51.46494 -0.42036 1313 ft 160 kts 102°
2026-05-07 21:25 51.45980 -0.40380 1566 ft 179 kts 129°
2026-05-07 21:25 51.45186 -0.38680 1825 ft 203 kts 127°
2026-05-07 21:26 51.44323 -0.36715 2176 ft 228 kts 126°
2026-05-07 21:26 51.43298 -0.34633 2687 ft 247 kts 138°
2026-05-07 21:26 51.41815 -0.33187 3513 ft 255 kts 160°
2026-05-07 21:26 51.40049 -0.32807 4396 ft 261 kts 184°
2026-05-07 21:27 51.38300 -0.33642 5296 ft 268 kts 209°
2026-05-07 21:27 51.36835 -0.35507 6190 ft 271 kts 222°
2026-05-07 21:27 51.35438 -0.37552 7084 ft 273 kts 223°
2026-05-07 21:27 51.34034 -0.39602 7965 ft 274 kts 223°
2026-05-07 21:28 51.32619 -0.41660 8855 ft 275 kts 224°
2026-05-07 21:28 51.31214 -0.43755 9738 ft 275 kts 229°
2026-05-07 21:28 51.30214 -0.46337 10511 ft 276 kts 250°
2026-05-07 21:28 51.29613 -0.49368 10798 ft 298 kts 253°
2026-05-07 21:29 51.29010 -0.52666 10953 ft 321 kts 254°
2026-05-07 21:29 51.28384 -0.56212 11082 ft 343 kts 254°
2026-05-07 21:29 51.27726 -0.59883 11400 ft 356 kts 253°
2026-05-07 21:29 51.27004 -0.63736 11952 ft 362 kts 252°
2026-05-07 21:30 51.26257 -0.67603 12546 ft 367 kts 252°
2026-05-07 21:30 51.25490 -0.71507 13158 ft 371 kts 251°
2026-05-07 21:30 51.24710 -0.75459 13777 ft 375 kts 251°
2026-05-07 21:30 51.23920 -0.79466 14347 ft 380 kts 251°
2026-05-07 21:31 51.23125 -0.83499 14937 ft 382 kts 251°
2026-05-07 21:31 51.22324 -0.87567 15525 ft 385 kts 251°
2026-05-07 21:31 51.21494 -0.91636 16114 ft 387 kts 248°
2026-05-07 21:31 51.20305 -0.95505 16718 ft 389 kts 238°
2026-05-07 21:32 51.18687 -0.98983 17332 ft 392 kts 228°
2026-05-07 21:32 51.16751 -1.02053 17928 ft 394 kts 224°
2026-05-07 21:32 51.14765 -1.05094 18492 ft 398 kts 224°
2026-05-07 21:32 51.12765 -1.08156 18998 ft 400 kts 224°
2026-05-07 21:33 51.10751 -1.11244 19500 ft 403 kts 224°
2026-05-07 21:33 51.08730 -1.14349 20011 ft 406 kts 224°
2026-05-07 21:33 51.06694 -1.17476 20505 ft 408 kts 224°
2026-05-07 21:33 51.04645 -1.20613 20970 ft 410 kts 224°
2026-05-07 21:34 51.02574 -1.23770 21417 ft 413 kts 224°
2026-05-07 21:34 51.00494 -1.26930 21833 ft 415 kts 224°
2026-05-07 21:34 50.98428 -1.30067 22241 ft 417 kts 224°
2026-05-07 21:34 50.96278 -1.33187 22635 ft 420 kts 219°
2026-05-07 21:35 50.93860 -1.35802 23022 ft 422 kts 210°
2026-05-07 21:35 50.91230 -1.37939 23406 ft 424 kts 207°
2026-05-07 21:35 50.88584 -1.40046 23751 ft 427 kts 207°
2026-05-07 21:35 50.85928 -1.42164 24015 ft 428 kts 207°
2026-05-07 21:36 50.83254 -1.44294 24081 ft 433 kts 207°
2026-05-07 21:36 50.80538 -1.46457 24075 ft 441 kts 207°
2026-05-07 21:36 50.77787 -1.48649 24071 ft 443 kts 207°
2026-05-07 21:36 50.75026 -1.50848 24069 ft 444 kts 207°
2026-05-07 21:37 50.72267 -1.53041 24076 ft 444 kts 207°
2026-05-07 21:37 50.69505 -1.55233 24077 ft 444 kts 207°
2026-05-07 21:37 50.66740 -1.57416 24073 ft 444 kts 207°
2026-05-07 21:37 50.63976 -1.59590 24072 ft 444 kts 207°
2026-05-07 21:38 50.61250 -1.61732 24049 ft 443 kts 207°
2026-05-07 21:38 50.58487 -1.63906 24058 ft 443 kts 207°
2026-05-07 21:38 50.55727 -1.66077 24055 ft 443 kts 207°
2026-05-07 21:38 50.52970 -1.68244 24052 ft 443 kts 207°
2026-05-07 21:39 50.50216 -1.70404 24047 ft 443 kts 207°
2026-05-07 21:39 50.47459 -1.72564 24048 ft 442 kts 207°
2026-05-07 21:39 50.44707 -1.74719 24045 ft 442 kts 207°
2026-05-07 21:39 50.41954 -1.76868 24040 ft 442 kts 207°
2026-05-07 21:40 50.39197 -1.79017 24034 ft 442 kts 207°
2026-05-07 21:40 50.36438 -1.81166 24036 ft 442 kts 207°
2026-05-07 21:40 50.33679 -1.83313 24033 ft 442 kts 207°
2026-05-07 21:40 50.30921 -1.85458 24026 ft 443 kts 207°
2026-05-07 21:41 50.28165 -1.87597 24024 ft 443 kts 207°
2026-05-07 21:41 50.25402 -1.89740 24023 ft 443 kts 207°
2026-05-07 21:41 50.22644 -1.91879 24026 ft 443 kts 207°
2026-05-07 21:41 50.19857 -1.94038 23834 ft 450 kts 207°
2026-05-07 21:42 50.17044 -1.96211 23535 ft 451 kts 207°
2026-05-07 21:42 50.14240 -1.98371 22484 ft 447 kts 207°
2026-05-07 21:42 50.11478 -2.00494 21645 ft 438 kts 206°
2026-05-07 21:42 50.08765 -2.02580 20777 ft 432 kts 207°
2026-05-07 21:43 50.06089 -2.04636 19948 ft 426 kts 207°
2026-05-07 21:43 50.03442 -2.06667 19109 ft 422 kts 206°
2026-05-07 21:43 50.00822 -2.08677 18300 ft 417 kts 206°
2026-05-07 21:43 49.98175 -2.10475 17419 ft 413 kts 200°
2026-05-07 21:44 49.95416 -2.11626 16590 ft 409 kts 193°
2026-05-07 21:44 49.92650 -2.12570 15767 ft 405 kts 193°
2026-05-07 21:44 49.89945 -2.13490 14990 ft 402 kts 193°
2026-05-07 21:44 49.87215 -2.14414 14225 ft 400 kts 193°
2026-05-07 21:45 49.84504 -2.15336 13444 ft 398 kts 193°
2026-05-07 21:45 49.81814 -2.16251 12731 ft 394 kts 193°
2026-05-07 21:45 49.79151 -2.17157 12031 ft 389 kts 193°
2026-05-07 21:45 49.76526 -2.18054 11394 ft 383 kts 193°
2026-05-07 21:46 49.73984 -2.18923 11233 ft 364 kts 193°
2026-05-07 21:46 49.71567 -2.19746 11097 ft 345 kts 193°
2026-05-07 21:46 49.69283 -2.20566 10972 ft 329 kts 194°
2026-05-07 21:46 49.67118 -2.21444 10841 ft 314 kts 195°
2026-05-07 21:47 49.65054 -2.22328 10719 ft 302 kts 196°
2026-05-07 21:47 49.63073 -2.23187 10598 ft 290 kts 196°
2026-05-07 21:47 49.61159 -2.24012 10465 ft 280 kts 195°
2026-05-07 21:47 49.59301 -2.24804 10262 ft 274 kts 195°
2026-05-07 21:48 49.57476 -2.25576 10202 ft 271 kts 195°
2026-05-07 21:48 49.55677 -2.26334 10139 ft 272 kts 195°
2026-05-07 21:48 49.53851 -2.27096 10033 ft 271 kts 195°
2026-05-07 21:48 49.52016 -2.27857 9573 ft 277 kts 195°
2026-05-07 21:49 49.50173 -2.28623 9296 ft 272 kts 194°
2026-05-07 21:49 49.48358 -2.29379 8845 ft 268 kts 195°
2026-05-07 21:49 49.46565 -2.30124 8184 ft 266 kts 194°
2026-05-07 21:49 49.44784 -2.30862 7569 ft 264 kts 194°
2026-05-07 21:50 49.43019 -2.31591 7030 ft 260 kts 194°
2026-05-07 21:50 49.41285 -2.32303 6541 ft 258 kts 194°
2026-05-07 21:50 49.39532 -2.33023 6058 ft 262 kts 194°
2026-05-07 21:50 49.37783 -2.33748 5629 ft 260 kts 194°
2026-05-07 21:51 49.36037 -2.34475 5109 ft 261 kts 194°
2026-05-07 21:51 49.34297 -2.35197 4656 ft 258 kts 194°
2026-05-07 21:51 49.32581 -2.35907 4182 ft 254 kts 194°
2026-05-07 21:51 49.30882 -2.36611 3633 ft 251 kts 195°
2026-05-07 21:52 49.29270 -2.37280 3540 ft 229 kts 195°
2026-05-07 21:52 49.27802 -2.37886 3489 ft 210 kts 194°
2026-05-07 21:52 49.26430 -2.38450 3401 ft 198 kts 194°
2026-05-07 21:52 49.25145 -2.38980 3352 ft 184 kts 195°
2026-05-07 21:53 49.23948 -2.39471 3246 ft 172 kts 194°
2026-05-07 21:53 49.22829 -2.39930 3163 ft 161 kts 194°
2026-05-07 21:53 49.21774 -2.40252 3088 ft 150 kts 180°
2026-05-07 21:53 49.20736 -2.39915 2943 ft 157 kts 156°
2026-05-07 21:54 49.19875 -2.38874 2674 ft 162 kts 131°
2026-05-07 21:54 49.19413 -2.37316 2467 ft 163 kts 104°
2026-05-07 21:54 49.19442 -2.35577 2254 ft 164 kts 86°
2026-05-07 21:54 49.19588 -2.33892 2039 ft 154 kts 86°
2026-05-07 21:55 49.19722 -2.32320 1865 ft 147 kts 88°
2026-05-07 21:55 49.19850 -2.30799 1657 ft 142 kts 87°
2026-05-07 21:55 49.19974 -2.29331 1464 ft 140 kts 88°
2026-05-07 21:55 49.20099 -2.27852 1275 ft 137 kts 87°
2026-05-07 21:56 49.20218 -2.26444 1088 ft 133 kts 86°
2026-05-07 21:56 49.20336 -2.25042 898 ft 132 kts 85°
2026-05-07 21:56 49.20452 -2.23654 725 ft 130 kts 84°
2026-05-07 21:56 49.20565 -2.22259 546 ft 133 kts 82°
2026-05-07 21:57 49.20681 -2.20873 326 ft 131 kts 82°
2026-05-07 21:57 49.20790 -2.19655 281 ft 86 kts 82°
2026-05-07 21:57 49.20806 -2.19091 284 ft 41 kts 104°
2026-05-07 21:57 49.20726 -2.18852 282 ft 12 kts 168°
2026-05-07 21:58 49.20696 -2.18949 282 ft 12 kts 263°
2026-05-07 21:58 49.20685 -2.19097 282 ft 15 kts 263°
2026-05-07 21:58 49.20691 -2.19270 281 ft 18 kts 285°
2026-05-07 21:58 49.20706 -2.19463 281 ft 20 kts 262°
2026-05-07 21:59 49.20670 -2.19627 283 ft 14 kts 233°
2026-05-07 21:59 49.20595 -2.19703 281 ft 12 kts 178°
2026-05-07 21:59 49.20560 -2.19701 281 ft 0 kts 177°